Location: Bay Ridge
(40.6340°N, 74.0146°W)
Time: 10:34:08
(UTC+00:00)

Cosmos 1934 Rocket - Pass Details

Date: 15 November 2019
Orbit: 938 x 999 km, 83.0° (Epoch: 14 December)

Event Time Altitude Azimuth Distance (km) Brightness Sun altitude
Exits shadow 09:01:34 49° 1° (N) 1,265 4.5 -30.5°
Drops below altitude 10° 09:06:05 10° 6° (N) 2,774 6.4 -29.6°
Sets 09:08:38 0° 7° (N) 3,730 7.1 -29.2°
